| time (UTC) | temp F | wind direction | speed knots | gust knots | rain 1hr in | rain 24hr in | rain mn in | humidity % | barometer mb |
| 20260904174016 | 84 | 118 | 0.9 | 3.5 | 0.00 | 0.00 | 0.00 | 25 | 1023.6 |
| 20260904173017 | 83 | 290 | 0.0 | 0.9 | 0.00 | 0.00 | 0.00 | 27 | 1023.6 |
| 20260904172035 | 82 | 125 | 0.0 | 0.9 | 0.00 | 0.00 | 0.00 | 27 | 1023.6 |
| 20260904171035 | 81 | 278 | 0.0 | 1.7 | 0.00 | 0.00 | 0.00 | 28 | 1023.6 |
| 20260904170035 | 81 | 29 | 0.0 | 1.7 | 0.00 | 0.00 | 0.00 | 28 | 1023.6 |
| 20260904165016 | 81 | 193 | 0.0 | 0.9 | 0.00 | 0.00 | 0.00 | 27 | 1023.7 |
| 20260904164017 | 80 | 194 | 0.0 | 1.7 | 0.00 | 0.00 | 0.00 | 27 | 1023.7 |
| 20260904163017 | 80 | 218 | 0.0 | 1.7 | 0.00 | 0.00 | 0.00 | 29 | 1023.6 |
| 20260904162017 | 79 | 263 | 0.0 | 0.9 | 0.00 | 0.00 | 0.00 | 30 | 1023.6 |
| 20260904161035 | 78 | 316 | 0.0 | 0.9 | 0.00 | 0.00 | 0.00 | 33 | 1023.7 |
| 20260904160015 | 78 | 142 | 0.0 | 1.7 | 0.00 | 0.00 | 0.00 | 33 | 1023.7 |
| 20260904155016 | 77 | 158 | 0.0 | 1.7 | 0.00 | 0.00 | 0.00 | 33 | 1023.6 |
| 20260904154016 | 76 | 191 | 0.0 | 1.7 | 0.00 | 0.00 | 0.00 | 33 | 1023.6 |
| 20260904153016 | 75 | 143 | 0.9 | 1.7 | 0.00 | 0.00 | 0.00 | 34 | 1023.7 |
| 20260904152017 | 74 | 136 | 0.0 | 0.9 | 0.00 | 0.00 | 0.00 | 36 | 1023.6 |
| 20260904151014 | 73 | 142 | 0.9 | 1.7 | 0.00 | 0.00 | 0.00 | 37 | 1023.6 |
| 20260904150015 | 72 | 147 | 0.0 | 0.9 | 0.00 | 0.00 | 0.00 | 38 | 1023.6 |
| 20260904145015 | 71 | 0.0 | 0.0 | 0.00 | 0.00 | 0.00 | 40 | 1023.5 | |
| 20260904144036 | 70 | 152 | 0.0 | 0.9 | 0.00 | 0.00 | 0.00 | 41 | 1023.5 |
| 20260904143056 | 69 | 150 | 0.0 | 0.9 | 0.00 | 0.00 | 0.00 | 46 | 1023.6 |
| 20260904142017 | 68 | 133 | 0.0 | 0.9 | 0.00 | 0.00 | 0.00 | 49 | 1023.4 |
| 20260904141017 | 66 | 133 | 0.0 | 0.9 | 0.00 | 0.00 | 0.00 | 50 | 1023.3 |
| 20260904140015 | 64 | 133 | 0.0 | 0.9 | 0.00 | 0.00 | 0.00 | 51 | 1023.3 |
| 20260904135015 | 63 | 0.0 | 0.0 | 0.00 | 0.00 | 0.00 | 56 | 1023.2 | |
| 20260904134016 | 63 | 0.0 | 0.0 | 0.00 | 0.00 | 0.00 | 55 | 1023.2 | |
| 20260904133017 | 63 | 133 | 0.0 | 0.9 | 0.00 | 0.00 | 0.00 | 52 | 1022.9 |
| 20260904132036 | 62 | 133 | 0.0 | 0.9 | 0.00 | 0.00 | 0.00 | 52 | 1022.7 |
| 20260904131037 | 61 | 133 | 0.0 | 1.7 | 0.00 | 0.00 | 0.00 | 53 | 1022.6 |
| 20260904130037 | 61 | 133 | 0.0 | 1.7 | 0.00 | 0.00 | 0.00 | 53 | 1022.5 |
| 20260904125015 | 60 | 0.0 | 0.0 | 0.00 | 0.00 | 0.00 | 53 | 1022.4 | |
| 20260904124015 | 61 | 0.0 | 0.0 | 0.00 | 0.00 | 0.00 | 53 | 1022.3 | |
| 20260904123016 | 60 | 131 | 0.9 | 2.6 | 0.00 | 0.00 | 0.00 | 53 | 1022.3 |
| 20260904122116 | 60 | 135 | 0.0 | 0.9 | 0.00 | 0.00 | 0.00 | 55 | 1022.3 |
| 20260904121016 | 61 | 0.0 | 0.0 | 0.00 | 0.00 | 0.00 | 54 | 1022.1 | |
| 20260904120017 | 61 | 135 | 0.0 | 0.9 | 0.00 | 0.00 | 0.00 | 52 | 1022.0 |
| 20260904115017 | 61 | 0.0 | 0.0 | 0.00 | 0.00 | 0.00 | 53 | 1021.8 | |
| 20260904114035 | 61 | 135 | 0.0 | 0.9 | 0.00 | 0.00 | 0.00 | 53 | 1021.9 |
| 20260904113015 | 61 | 135 | 0.0 | 0.9 | 0.00 | 0.00 | 0.00 | 55 | 1021.8 |
| 20260904112036 | 61 | 135 | 0.0 | 0.9 | 0.00 | 0.00 | 0.00 | 56 | 1021.9 |
| 20260904111016 | 60 | 142 | 0.0 | 0.9 | 0.00 | 0.00 | 0.00 | 60 | 1021.9 |
| 20260904110036 | 59 | 0.0 | 0.0 | 0.00 | 0.00 | 0.00 | 63 | 1021.9 | |
| 20260904105017 | 60 | 0.0 | 0.0 | 0.00 | 0.00 | 0.00 | 62 | 1021.8 | |
| 20260904104017 | 61 | 0.0 | 0.0 | 0.00 | 0.00 | 0.00 | 60 | 1021.5 | |
| 20260904103017 | 62 | 0.0 | 0.0 | 0.00 | 0.00 | 0.00 | 59 | 1021.3 | |
| 20260904102015 | 62 | 144 | 0.0 | 1.7 | 0.00 | 0.00 | 0.00 | 58 | 1021.1 |
| 20260904101016 | 63 | 146 | 0.0 | 0.9 | 0.00 | 0.00 | 0.00 | 57 | 1021.0 |
| 20260904100016 | 64 | 146 | 0.0 | 0.9 | 0.00 | 0.00 | 0.00 | 56 | 1021.0 |
| 20260904095017 | 65 | 0.0 | 0.0 | 0.00 | 0.00 | 0.00 | 55 | 1020.9 | |
| 20260904094017 | 65 | 137 | 0.9 | 1.7 | 0.00 | 0.00 | 0.00 | 55 | 1020.7 |
| 20260904093015 | 65 | 143 | 0.9 | 1.7 | 0.00 | 0.00 | 0.00 | 55 | 1020.7 |
| 20260904092015 | 65 | 148 | 0.0 | 0.9 | 0.00 | 0.00 | 0.00 | 55 | 1020.6 |
| 20260904091015 | 65 | 140 | 0.9 | 2.6 | 0.00 | 0.00 | 0.00 | 55 | 1020.5 |
| 20260904090016 | 65 | 140 | 0.0 | 1.7 | 0.00 | 0.00 | 0.00 | 55 | 1020.5 |
| 20260904085016 | 66 | 139 | 0.9 | 1.7 | 0.00 | 0.00 | 0.00 | 54 | 1020.6 |
| 20260904084017 | 66 | 141 | 0.0 | 0.9 | 0.00 | 0.00 | 0.00 | 53 | 1020.5 |
| 20260904083017 | 67 | 140 | 0.0 | 2.6 | 0.00 | 0.00 | 0.00 | 53 | 1020.5 |
| 20260904082015 | 68 | 0.0 | 0.0 | 0.00 | 0.00 | 0.00 | 52 | 1020.6 | |
| 20260904081015 | 69 | 146 | 0.9 | 4.3 | 0.00 | 0.00 | 0.00 | 50 | 1020.3 |
| 20260904080015 | 69 | 144 | 0.9 | 3.5 | 0.00 | 0.00 | 0.00 | 50 | 1020.3 |
| 20260904075018 | 69 | 145 | 1.7 | 3.5 | 0.00 | 0.00 | 0.00 | 49 | 1020.3 |
| 20260904074016 | 69 | 148 | 0.9 | 4.3 | 0.00 | 0.00 | 0.00 | 49 | 1020.4 |
| 20260904073158 | 69 | 143 | 0.9 | 3.5 | 0.00 | 0.00 | 0.00 | 49 | 1020.4 |
| 20260904072017 | 69 | 142 | 0.0 | 0.9 | 0.00 | 0.00 | 0.00 | 49 | 1020.8 |
| 20260904071035 | 69 | 0.0 | 0.0 | 0.00 | 0.00 | 0.00 | 48 | 1020.9 | |
| 20260904070015 | 69 | 142 | 0.0 | 1.7 | 0.00 | 0.00 | 0.00 | 48 | 1020.8 |
| 20260904065018 | 69 | 140 | 0.0 | 0.9 | 0.00 | 0.00 | 0.00 | 48 | 1020.8 |
| 20260904064016 | 70 | 0.0 | 0.0 | 0.00 | 0.00 | 0.00 | 47 | 1020.8 | |
| 20260904063016 | 70 | 139 | 0.0 | 0.9 | 0.00 | 0.00 | 0.00 | 47 | 1020.9 |
| 20260904062017 | 70 | 0.0 | 0.0 | 0.00 | 0.00 | 0.00 | 46 | 1020.9 | |
| 20260904061017 | 71 | 139 | 0.0 | 0.9 | 0.00 | 0.00 | 0.00 | 45 | 1020.9 |
| 20260904060015 | 72 | 144 | 0.0 | 1.7 | 0.00 | 0.00 | 0.00 | 44 | 1020.9 |
| 20260904055015 | 72 | 143 | 0.0 | 1.7 | 0.00 | 0.00 | 0.00 | 43 | 1020.9 |
| 20260904054016 | 72 | 275 | 0.0 | 0.9 | 0.00 | 0.00 | 0.00 | 43 | 1021.0 |
| 20260904053016 | 73 | 249 | 0.0 | 0.9 | 0.00 | 0.00 | 0.00 | 41 | 1021.0 |
| 20260904052016 | 73 | 0.0 | 0.0 | 0.00 | 0.00 | 0.00 | 40 | 1021.0 | |
| 20260904051017 | 74 | 0.0 | 0.0 | 0.00 | 0.00 | 0.00 | 39 | 1021.1 | |
| 20260904050015 | 74 | 258 | 0.0 | 0.9 | 0.00 | 0.00 | 0.00 | 38 | 1021.2 |
| 20260904045015 | 75 | 240 | 0.0 | 0.9 | 0.00 | 0.00 | 0.00 | 37 | 1021.3 |
| 20260904044015 | 75 | 146 | 0.0 | 2.6 | 0.00 | 0.00 | 0.00 | 35 | 1021.3 |
| 20260904043016 | 75 | 263 | 0.9 | 6.1 | 0.00 | 0.00 | 0.00 | 34 | 1021.4 |
| 20260904042016 | 74 | 170 | 0.0 | 1.7 | 0.00 | 0.00 | 0.00 | 34 | 1021.4 |
| 20260904041017 | 74 | 129 | 0.0 | 0.9 | 0.00 | 0.00 | 0.00 | 33 | 1021.4 |
| 20260904040017 | 74 | 273 | 0.0 | 1.7 | 0.00 | 0.00 | 0.00 | 32 | 1021.2 |
| 20260904035015 | 75 | 0.0 | 0.0 | 0.00 | 0.00 | 0.00 | 32 | 1021.2 | |
| 20260904034015 | 76 | 129 | 0.0 | 0.9 | 0.00 | 0.00 | 0.00 | 31 | 1021.0 |
| 20260904033015 | 76 | 141 | 0.9 | 5.2 | 0.00 | 0.00 | 0.00 | 31 | 1020.7 |
| 20260904032016 | 76 | 142 | 0.9 | 1.7 | 0.00 | 0.00 | 0.00 | 31 | 1020.5 |
| 20260904031019 | 76 | 146 | 0.0 | 0.9 | 0.00 | 0.00 | 0.00 | 30 | 1020.5 |
| 20260904030017 | 76 | 162 | 0.9 | 4.3 | 0.00 | 0.00 | 0.00 | 31 | 1020.4 |
| 20260904025017 | 76 | 272 | 0.0 | 0.9 | 0.00 | 0.00 | 0.00 | 32 | 1020.4 |
| 20260904024035 | 77 | 0.0 | 0.0 | 0.00 | 0.00 | 0.00 | 31 | 1020.2 | |
| 20260904023015 | 78 | 144 | 0.0 | 1.7 | 0.00 | 0.00 | 0.00 | 29 | 1019.8 |
| 20260904022016 | 79 | 139 | 0.9 | 3.5 | 0.00 | 0.00 | 0.00 | 28 | 1019.6 |
| 20260904021036 | 80 | 136 | 0.9 | 3.5 | 0.00 | 0.00 | 0.00 | 28 | 1019.5 |
| 20260904020016 | 80 | 130 | 0.9 | 2.6 | 0.00 | 0.00 | 0.00 | 27 | 1019.4 |
| 20260904015017 | 81 | 134 | 0.9 | 2.6 | 0.00 | 0.00 | 0.00 | 26 | 1019.3 |
| 20260904014017 | 82 | 136 | 1.7 | 4.3 | 0.00 | 0.00 | 0.00 | 26 | 1019.1 |
| 20260904013015 | 82 | 140 | 1.7 | 6.1 | 0.00 | 0.00 | 0.00 | 25 | 1019.0 |
| 20260904012015 | 83 | 138 | 1.7 | 6.1 | 0.00 | 0.00 | 0.00 | 25 | 1018.9 |
| 20260904011016 | 84 | 139 | 1.7 | 10.4 | 0.00 | 0.00 | 0.00 | 25 | 1018.9 |
| 20260904010016 | 85 | 143 | 1.7 | 3.5 | 0.00 | 0.00 | 0.00 | 25 | 1018.9 |
| 20260904005017 | 85 | 141 | 0.9 | 3.5 | 0.00 | 0.00 | 0.00 | 24 | 1018.9 |
| 20260904004017 | 86 | 142 | 0.9 | 6.1 | 0.00 | 0.00 | 0.00 | 23 | 1018.9 |
| 20260904003015 | 87 | 145 | 1.7 | 5.2 | 0.00 | 0.00 | 0.00 | 22 | 1018.9 |
| 20260904002015 | 88 | 138 | 1.7 | 6.1 | 0.00 | 0.00 | 0.00 | 21 | 1019.0 |
| 20260904001015 | 89 | 163 | 1.7 | 7.0 | 0.00 | 0.00 | 0.00 | 19 | 1018.8 |
| 20260904000016 | 90 | 130 | 1.7 | 5.2 | 0.00 | 0.00 | 0.00 | 17 | 1018.9 |
| 20260903235016 | 92 | 155 | 0.9 | 4.3 | 0.00 | 0.00 | 0.00 | 16 | 1018.9 |
| 20260903234016 | 91 | 246 | 0.0 | 1.7 | 0.00 | 0.00 | 0.00 | 17 | 1019.0 |
| 20260903233017 | 92 | 152 | 0.9 | 2.6 | 0.00 | 0.00 | 0.00 | 16 | 1019.1 |
| 20260903232035 | 92 | 139 | 0.9 | 3.5 | 0.00 | 0.00 | 0.00 | 17 | 1019.2 |
| 20260903231015 | 92 | 241 | 0.0 | 1.7 | 0.00 | 0.00 | 0.00 | 18 | 1019.2 |
| 20260903230016 | 92 | 139 | 0.9 | 4.3 | 0.00 | 0.00 | 0.00 | 18 | 1019.4 |
| 20260903225019 | 91 | 136 | 1.7 | 5.2 | 0.00 | 0.00 | 0.00 | 19 | 1019.5 |
| 20260903224016 | 92 | 143 | 0.9 | 2.6 | 0.00 | 0.00 | 0.00 | 19 | 1019.6 |
| 20260903223016 | 92 | 243 | 0.0 | 3.5 | 0.00 | 0.00 | 0.00 | 21 | 1019.6 |
| 20260903222037 | 91 | 126 | 0.9 | 2.6 | 0.00 | 0.00 | 0.00 | 22 | 1019.7 |
| 20260903221015 | 90 | 106 | 0.9 | 2.6 | 0.00 | 0.00 | 0.00 | 22 | 1019.8 |
| 20260903220015 | 91 | 141 | 2.6 | 5.2 | 0.00 | 0.00 | 0.00 | 21 | 1019.9 |
| 20260903215016 | 91 | 144 | 0.9 | 5.2 | 0.00 | 0.00 | 0.00 | 20 | 1019.9 |
| 20260903214016 | 91 | 143 | 0.9 | 4.3 | 0.00 | 0.00 | 0.00 | 19 | 1020.1 |
| 20260903213016 | 92 | 144 | 2.6 | 6.1 | 0.00 | 0.00 | 0.00 | 20 | 1020.2 |
| 20260903212017 | 91 | 154 | 0.0 | 0.9 | 0.00 | 0.00 | 0.00 | 22 | 1020.2 |
| 20260903211017 | 91 | 137 | 1.7 | 7.8 | 0.00 | 0.00 | 0.00 | 22 | 1020.4 |
| 20260903210015 | 92 | 127 | 0.9 | 1.7 | 0.00 | 0.00 | 0.00 | 20 | 1020.4 |
| 20260903205015 | 91 | 267 | 1.7 | 5.2 | 0.00 | 0.00 | 0.00 | 20 | 1020.5 |
| 20260903204015 | 90 | 238 | 0.9 | 3.5 | 0.00 | 0.00 | 0.00 | 20 | 1020.7 |
| 20260903203016 | 91 | 252 | 1.7 | 6.1 | 0.00 | 0.00 | 0.00 | 20 | 1020.9 |
| 20260903202019 | 90 | 222 | 1.7 | 5.2 | 0.00 | 0.00 | 0.00 | 21 | 1020.9 |
| 20260903201037 | 90 | 131 | 0.9 | 1.7 | 0.00 | 0.00 | 0.00 | 21 | 1021.0 |
| 20260903200017 | 89 | 130 | 0.9 | 5.2 | 0.00 | 0.00 | 0.00 | 22 | 1021.2 |
| 20260903195015 | 89 | 231 | 0.0 | 1.7 | 0.00 | 0.00 | 0.00 | 23 | 1021.2 |
| 20260903194015 | 88 | 257 | 0.9 | 3.5 | 0.00 | 0.00 | 0.00 | 23 | 1021.4 |
| 20260903193015 | 88 | 134 | 1.7 | 3.5 | 0.00 | 0.00 | 0.00 | 24 | 1021.5 |
| 20260903192016 | 88 | 136 | 1.7 | 4.3 | 0.00 | 0.00 | 0.00 | 25 | 1021.6 |
| 20260903191016 | 87 | 84 | 0.9 | 1.7 | 0.00 | 0.00 | 0.00 | 26 | 1021.8 |
| 20260903190037 | 86 | 163 | 0.0 | 0.9 | 0.00 | 0.00 | 0.00 | 26 | 1022.0 |
| 20260903185017 | 86 | 138 | 0.9 | 5.2 | 0.00 | 0.00 | 0.00 | 25 | 1022.3 |
| 20260903184015 | 85 | 93 | 0.0 | 0.9 | 0.00 | 0.00 | 0.00 | 27 | 1022.4 |
| 20260903183015 | 84 | 304 | 0.0 | 0.9 | 0.00 | 0.00 | 0.00 | 27 | 1022.6 |
| 20260903182016 | 83 | 127 | 0.0 | 0.9 | 0.00 | 0.00 | 0.00 | 27 | 1022.8 |
| 20260903181016 | 83 | 144 | 0.9 | 2.6 | 0.00 | 0.00 | 0.00 | 27 | 1022.9 |
| 20260903180036 | 82 | 145 | 0.0 | 0.9 | 0.00 | 0.00 | 0.00 | 29 | 1023.0 |
| 20260903175037 | 82 | 135 | 0.0 | 0.9 | 0.00 | 0.00 | 0.00 | 27 | 1023.1 |